Regional Weather Roundup
Issued by NWS Kansas City/Pleasant Hill, MO

Home | Current Version | Previous Version | Graphics & Text | Print | Product List | Glossary Off
Versions: 1 2 3 4 5 6 7 8 9 10 11 12 13 14 15 16 17 18 19 20 21 22 23 24 25 26 27 28 29 30 31 32 33 34 35 36 37 38 39 40 41 42 43 44 45 46 47 48 49 50

000
ASUS43 KEAX 221110
RWREAX

WEATHER ROUNDUP FOR EASTERN KANSAS AND NORTHWEST MISSOURI
NATIONAL WEATHER SERVICE KANSAS CITY/PLEASANT HILL MO
500 AM CST WED FEB 22 2017

KSZ040-057-103>105-MOZ028-029-037-043-221200-
...KANSAS CITY METROPOLITAN AREA...

CITY           SKY/WX    TMP DP  RH WIND       PRES   REMARKS
K.C. INTL      CLEAR     48  37  65 S10       29.80S
K.C. DOWNTOWN  CLEAR     51  40  65 SW3       29.81R
LEES SUMMIT    CLEAR     50  45  83 SW9       29.82S
OLATHE - IXD   CLEAR     42  37  82 S6        29.83S
OLATHE - OJC   CLEAR     47  39  74 SW5       29.82S
LAWRENCE       CLEAR     36  31  82 E6        29.82S WCI  31

$$

MOZ001>008-011>017-020>025-030>033-038>040-044>046-053-054-221200-
...NORTHERN AND CENTRAL MISSOURI...

CITY           SKY/WX    TMP DP  RH WIND       PRES   REMARKS
ST. JOSEPH     CLEAR     43  34  70 S7        29.78F
WARRENSBURG    CLEAR     46  45  93 S7        29.83S
WHITEMAN AFB   FOG       50  50 100 S8        29.83S VSB 1/2
CLINTON        FOG       50  50 100 S5        29.85F VSB 3/4
SEDALIA        CLEAR     53  52  96 S8        29.85S FOG
WARSAW         NOT AVBL
CHILLICOTHE      N/A     46  43  89 S3        29.81F
KIRKSVILLE     FOG       50  49  96 SW6       29.82R VSB 1/4

$$

MOZ041-047>049-056>058-063>065-088>090-097-221200-
...EASTERN AND SOUTHERN MISSOURI...

CITY           SKY/WX    TMP DP  RH WIND       PRES   REMARKS
ST. LOUIS INTL PTCLDY    50  47  89 CALM      29.88R FOG
SPIRIT OF STL  FOG       51  51 100 CALM      29.87R VSB 1/4
COLUMBIA       FOG       50  50 100 S7        29.86R VSB 1/4
JEFFERSON CITY FOG       49  49 100 E5        29.87R VSB 1/4
ROLLA          FOG       54  54 100 SW8       29.87R VSB 1/4
OSAGE BEACH    LGT RAIN  54  54 100 S6        29.89R VSB 1/4
SPRINGFIELD    FOG       54  54 100 S7        29.89R VSB 1/4
BRANSON        CLOUDY    54  54 100 CALM      29.91R FOG
JOPLIN         CLEAR     51  51 100 SE7       29.87S
WEST PLAINS    FOG       54  53  97 CALM      29.90S VSB 1/2

$$

IAZ060-094-KSZ022-034>040-054-083-096-NEZ052-066-093-221200-
...KANSAS...SOUTHEAST NEBRASKA AND IOWA...

CITY           SKY/WX    TMP DP  RH WIND       PRES   REMARKS
TOPEKA         CLOUDY    47  33  58 CALM      29.80R
MANHATTAN      PTCLDY    50  36  58 SW10      29.78F
EMPORIA        PTCLDY    46  35  65 S6        29.81F
CHANUTE        CLEAR     47  40  76 S9        29.84S
WICHITA        CLEAR     40  35  83 S8        29.83S WCI  34
OMAHA          CLEAR     50  35  56 S13       29.69F
LINCOLN        CLEAR     43  34  70 S12       29.71F
FALLS CITY     CLEAR     47  34  60 S9        29.74F
LAMONI         CLEAR     46  35  65 S12       29.76F
DES MOINES     CLEAR     48  33  56 S10       29.72F

$$




USA.gov is the U.S. government's official web portal to all federal, state and local government web resources and services.